| time (UTC) | temp F | wind direction | speed MPH | gust MPH | rain 1hr in | rain 24hr in | rain mn in | humidity % | barometer mb |
| 20260508022004 | 68 | 239 | 0.0 | 6.0 | 0.00 | 0.00 | 0.00 | 36 | 1018.8 |
| 20260508021504 | 69 | 224 | 1.0 | 7.0 | 0.00 | 0.00 | 0.00 | 35 | 1018.8 |
| 20260508021005 | 70 | 294 | 4.0 | 8.0 | 0.00 | 0.00 | 0.00 | 35 | 1018.7 |
| 20260508020505 | 70 | 278 | 5.0 | 8.0 | 0.00 | 0.00 | 0.00 | 34 | 1018.7 |
| 20260508020005 | 70 | 289 | 6.0 | 10.0 | 0.00 | 0.00 | 0.00 | 32 | 1018.6 |
| 20260508015504 | 71 | 284 | 3.0 | 8.0 | 0.00 | 0.00 | 0.00 | 33 | 1018.7 |
| 20260508015005 | 71 | 292 | 3.0 | 10.0 | 0.00 | 0.00 | 0.00 | 33 | 1018.6 |
| 20260508014004 | 71 | 278 | 3.0 | 9.0 | 0.00 | 0.00 | 0.00 | 31 | 1018.5 |
| 20260508013505 | 72 | 290 | 5.0 | 14.0 | 0.00 | 0.00 | 0.00 | 30 | 1018.5 |
| 20260508013004 | 72 | 269 | 5.0 | 9.0 | 0.00 | 0.00 | 0.00 | 31 | 1018.5 |
| 20260508012504 | 72 | 295 | 5.0 | 13.0 | 0.00 | 0.00 | 0.00 | 30 | 1018.4 |
| 20260508012004 | 72 | 320 | 2.0 | 10.0 | 0.00 | 0.00 | 0.00 | 28 | 1018.4 |
| 20260508011504 | 73 | 293 | 4.0 | 9.0 | 0.00 | 0.00 | 0.00 | 28 | 1018.4 |
| 20260508010505 | 74 | 300 | 5.0 | 14.0 | 0.00 | 0.00 | 0.00 | 25 | 1018.4 |
| 20260508010004 | 74 | 296 | 4.0 | 8.0 | 0.00 | 0.00 | 0.00 | 25 | 1018.4 |
| 20260508005504 | 74 | 300 | 7.0 | 14.0 | 0.00 | 0.00 | 0.00 | 25 | 1018.4 |
| 20260508005004 | 74 | 286 | 6.0 | 9.0 | 0.00 | 0.00 | 0.00 | 25 | 1018.4 |
| 20260508004504 | 74 | 279 | 5.0 | 10.0 | 0.00 | 0.00 | 0.00 | 24 | 1018.4 |
| 20260508004004 | 74 | 303 | 5.0 | 12.0 | 0.00 | 0.00 | 0.00 | 24 | 1018.4 |
| 20260508003505 | 74 | 287 | 6.0 | 12.0 | 0.00 | 0.00 | 0.00 | 24 | 1018.4 |
| 20260508002005 | 74 | 282 | 5.0 | 12.0 | 0.00 | 0.00 | 0.00 | 24 | 1018.4 |
| 20260508001005 | 75 | 277 | 6.0 | 12.0 | 0.00 | 0.00 | 0.00 | 25 | 1018.2 |
| 20260508000504 | 75 | 288 | 6.0 | 20.0 | 0.00 | 0.00 | 0.00 | 24 | 1018.3 |
| 20260508000004 | 75 | 285 | 6.0 | 14.0 | 0.00 | 0.00 | 0.00 | 23 | 1018.3 |
| 20260507235504 | 75 | 281 | 5.0 | 12.0 | 0.00 | 0.00 | 0.00 | 23 | 1018.4 |
| 20260507235004 | 75 | 272 | 7.0 | 16.0 | 0.00 | 0.00 | 0.00 | 24 | 1018.3 |
| 20260507234504 | 75 | 284 | 5.0 | 12.0 | 0.00 | 0.00 | 0.00 | 24 | 1018.4 |
| 20260507234004 | 75 | 287 | 6.0 | 12.0 | 0.00 | 0.00 | 0.00 | 23 | 1018.4 |
| 20260507233504 | 75 | 290 | 6.0 | 12.0 | 0.00 | 0.00 | 0.00 | 24 | 1018.4 |
| 20260507233004 | 75 | 275 | 5.0 | 15.0 | 0.00 | 0.00 | 0.00 | 24 | 1018.3 |
| 20260507232504 | 76 | 277 | 7.0 | 17.0 | 0.00 | 0.00 | 0.00 | 23 | 1018.4 |
| 20260507231504 | 76 | 283 | 7.0 | 13.0 | 0.00 | 0.00 | 0.00 | 22 | 1018.4 |
| 20260507231004 | 76 | 286 | 6.0 | 16.0 | 0.00 | 0.00 | 0.00 | 23 | 1018.4 |
| 20260507230505 | 77 | 277 | 6.0 | 13.0 | 0.00 | 0.00 | 0.00 | 22 | 1018.5 |
| 20260507230005 | 77 | 289 | 7.0 | 14.0 | 0.00 | 0.00 | 0.00 | 22 | 1018.5 |
| 20260507225504 | 77 | 272 | 6.0 | 10.0 | 0.00 | 0.00 | 0.00 | 22 | 1018.4 |
| 20260507225005 | 77 | 290 | 5.0 | 13.0 | 0.00 | 0.00 | 0.00 | 21 | 1018.5 |
| 20260507224504 | 77 | 283 | 5.0 | 14.0 | 0.00 | 0.00 | 0.00 | 21 | 1018.5 |
| 20260507224004 | 78 | 271 | 5.0 | 15.0 | 0.00 | 0.00 | 0.00 | 21 | 1018.6 |
| 20260507223505 | 78 | 260 | 5.0 | 9.0 | 0.00 | 0.00 | 0.00 | 21 | 1018.6 |
| 20260507223005 | 78 | 264 | 6.0 | 10.0 | 0.00 | 0.00 | 0.00 | 21 | 1018.6 |
| 20260507222505 | 78 | 277 | 5.0 | 14.0 | 0.00 | 0.00 | 0.00 | 22 | 1018.7 |
| 20260507222005 | 78 | 291 | 3.0 | 14.0 | 0.00 | 0.00 | 0.00 | 22 | 1018.8 |
| 20260507221504 | 78 | 277 | 3.0 | 13.0 | 0.00 | 0.00 | 0.00 | 22 | 1018.8 |
| 20260507221005 | 78 | 265 | 5.0 | 12.0 | 0.00 | 0.00 | 0.00 | 22 | 1019.0 |
| 20260507220504 | 78 | 273 | 5.0 | 9.0 | 0.00 | 0.00 | 0.00 | 22 | 1019.0 |
| 20260507220005 | 78 | 276 | 5.0 | 9.0 | 0.00 | 0.00 | 0.00 | 20 | 1019.1 |
| 20260507215004 | 78 | 272 | 3.0 | 12.0 | 0.00 | 0.00 | 0.00 | 21 | 1019.2 |
| 20260507214504 | 78 | 287 | 5.0 | 12.0 | 0.00 | 0.00 | 0.00 | 21 | 1019.2 |
| 20260507214005 | 78 | 291 | 6.0 | 10.0 | 0.00 | 0.00 | 0.00 | 20 | 1019.3 |
| 20260507213505 | 78 | 287 | 7.0 | 12.0 | 0.00 | 0.00 | 0.00 | 22 | 1019.3 |
| 20260507212505 | 78 | 290 | 6.0 | 9.0 | 0.00 | 0.00 | 0.00 | 22 | 1019.4 |
| 20260507212004 | 78 | 291 | 6.0 | 12.0 | 0.00 | 0.00 | 0.00 | 21 | 1019.6 |
| 20260507211504 | 78 | 281 | 6.0 | 13.0 | 0.00 | 0.00 | 0.00 | 21 | 1019.6 |
| 20260507211005 | 78 | 289 | 5.0 | 10.0 | 0.00 | 0.00 | 0.00 | 24 | 1019.5 |
| 20260507210504 | 78 | 285 | 6.0 | 13.0 | 0.00 | 0.00 | 0.00 | 23 | 1019.6 |
| 20260507205505 | 78 | 285 | 7.0 | 12.0 | 0.00 | 0.00 | 0.00 | 22 | 1019.7 |
| 20260507205004 | 78 | 284 | 6.0 | 13.0 | 0.00 | 0.00 | 0.00 | 23 | 1019.7 |
| 20260507204505 | 78 | 272 | 6.0 | 13.0 | 0.00 | 0.00 | 0.00 | 22 | 1019.7 |
| 20260507204005 | 78 | 288 | 6.0 | 13.0 | 0.00 | 0.00 | 0.00 | 22 | 1019.7 |
| 20260507203504 | 78 | 275 | 6.0 | 10.0 | 0.00 | 0.00 | 0.00 | 22 | 1019.8 |
| 20260507203004 | 77 | 286 | 6.0 | 14.0 | 0.00 | 0.00 | 0.00 | 23 | 1019.8 |
| 20260507202505 | 77 | 284 | 6.0 | 13.0 | 0.00 | 0.00 | 0.00 | 24 | 1019.8 |
| 20260507202005 | 77 | 278 | 7.0 | 15.0 | 0.00 | 0.00 | 0.00 | 24 | 1019.8 |
| 20260507201005 | 77 | 266 | 6.0 | 17.0 | 0.00 | 0.00 | 0.00 | 24 | 1019.9 |
| 20260507200505 | 77 | 292 | 7.0 | 14.0 | 0.00 | 0.00 | 0.00 | 24 | 1019.9 |
| 20260507195504 | 77 | 278 | 6.0 | 14.0 | 0.00 | 0.00 | 0.00 | 26 | 1019.9 |
| 20260507195004 | 76 | 275 | 4.0 | 10.0 | 0.00 | 0.00 | 0.00 | 26 | 1019.9 |
| 20260507194504 | 76 | 275 | 6.0 | 12.0 | 0.00 | 0.00 | 0.00 | 28 | 1020.0 |
| 20260507194004 | 76 | 285 | 6.0 | 14.0 | 0.00 | 0.00 | 0.00 | 26 | 1020.1 |
| 20260507193504 | 76 | 294 | 6.0 | 9.0 | 0.00 | 0.00 | 0.00 | 24 | 1020.2 |
| 20260507192504 | 76 | 285 | 4.0 | 12.0 | 0.00 | 0.00 | 0.00 | 26 | 1020.3 |
| 20260507192005 | 76 | 288 | 3.0 | 9.0 | 0.00 | 0.00 | 0.00 | 26 | 1020.3 |
| 20260507191505 | 76 | 287 | 5.0 | 10.0 | 0.00 | 0.00 | 0.00 | 25 | 1020.3 |
| 20260507191005 | 76 | 270 | 4.0 | 8.0 | 0.00 | 0.00 | 0.00 | 27 | 1020.4 |
| 20260507190504 | 76 | 277 | 5.0 | 9.0 | 0.00 | 0.00 | 0.00 | 26 | 1020.5 |
| 20260507190006 | 76 | 269 | 6.0 | 13.0 | 0.00 | 0.00 | 0.00 | 28 | 1020.5 |
| 20260507185505 | 76 | 275 | 3.0 | 8.0 | 0.00 | 0.00 | 0.00 | 27 | 1020.5 |
| 20260507185004 | 76 | 263 | 4.0 | 13.0 | 0.00 | 0.00 | 0.00 | 28 | 1020.6 |
| 20260507184504 | 76 | 268 | 4.0 | 8.0 | 0.00 | 0.00 | 0.00 | 28 | 1020.8 |
| 20260507184005 | 75 | 260 | 3.0 | 9.0 | 0.00 | 0.00 | 0.00 | 29 | 1020.8 |
| 20260507183504 | 75 | 285 | 3.0 | 7.0 | 0.00 | 0.00 | 0.00 | 31 | 1020.8 |
| 20260507183004 | 74 | 264 | 2.0 | 9.0 | 0.00 | 0.00 | 0.00 | 29 | 1020.9 |
| 20260507182004 | 74 | 0 | 1.0 | 7.0 | 0.00 | 0.00 | 0.00 | 30 | 1020.9 |
| 20260507181504 | 74 | 195 | 1.0 | 6.0 | 0.00 | 0.00 | 0.00 | 30 | 1020.9 |
| 20260507181005 | 74 | 264 | 2.0 | 5.0 | 0.00 | 0.00 | 0.00 | 32 | 1020.9 |
| 20260507180505 | 73 | 294 | 3.0 | 8.0 | 0.00 | 0.00 | 0.00 | 30 | 1020.9 |
| 20260507180005 | 73 | 270 | 2.0 | 5.0 | 0.00 | 0.00 | 0.00 | 32 | 1020.9 |
| 20260507175505 | 72 | 312 | 0.0 | 3.0 | 0.00 | 0.00 | 0.00 | 30 | 1021.0 |
| 20260507175004 | 72 | 205 | 0.0 | 3.0 | 0.00 | 0.00 | 0.00 | 34 | 1020.9 |
| 20260507174506 | 72 | 265 | 0.0 | 3.0 | 0.00 | 0.00 | 0.00 | 34 | 1021.0 |
| 20260507174005 | 72 | 90 | 0.0 | 5.0 | 0.00 | 0.00 | 0.00 | 34 | 1021.0 |
| 20260507173504 | 71 | 172 | 3.0 | 6.0 | 0.00 | 0.00 | 0.00 | 34 | 1021.0 |
| 20260507173005 | 71 | 192 | 0.0 | 3.0 | 0.00 | 0.00 | 0.00 | 35 | 1021.0 |
| 20260507172504 | 71 | 199 | 1.0 | 5.0 | 0.00 | 0.00 | 0.00 | 35 | 1021.0 |
| 20260507172004 | 70 | 196 | 1.0 | 3.0 | 0.00 | 0.00 | 0.00 | 39 | 1021.0 |
| 20260507171505 | 69 | 155 | 0.0 | 7.0 | 0.00 | 0.00 | 0.00 | 37 | 1021.1 |
| 20260507171005 | 69 | 150 | 0.0 | 6.0 | 0.00 | 0.00 | 0.00 | 39 | 1021.1 |
| 20260507170504 | 69 | 138 | 0.0 | 0.0 | 0.00 | 0.00 | 0.00 | 38 | 1021.1 |
| 20260507170005 | 69 | 138 | 0.0 | 0.0 | 0.00 | 0.00 | 0.00 | 39 | 1021.2 |
| 20260507165005 | 68 | 138 | 0.0 | 1.0 | 0.00 | 0.00 | 0.00 | 41 | 1021.1 |
| 20260507164004 | 67 | 14 | 1.0 | 3.0 | 0.00 | 0.00 | 0.00 | 43 | 1021.2 |
| 20260507163505 | 67 | 326 | 1.0 | 3.0 | 0.00 | 0.00 | 0.00 | 45 | 1021.2 |
| 20260507162504 | 66 | 51 | 0.0 | 0.0 | 0.00 | 0.00 | 0.00 | 50 | 1021.2 |
| 20260507162004 | 65 | 51 | 0.0 | 0.0 | 0.00 | 0.00 | 0.00 | 49 | 1021.3 |
| 20260507160505 | 64 | 325 | 0.0 | 3.0 | 0.00 | 0.00 | 0.00 | 53 | 1021.5 |
| 20260507160005 | 63 | 33 | 1.0 | 3.0 | 0.00 | 0.00 | 0.00 | 53 | 1021.4 |
| 20260507155005 | 62 | 282 | 0.0 | 2.0 | 0.00 | 0.00 | 0.00 | 56 | 1021.4 |
| 20260507154505 | 62 | 299 | 1.0 | 3.0 | 0.00 | 0.00 | 0.00 | 55 | 1021.4 |
| 20260507154005 | 61 | 179 | 0.0 | 0.0 | 0.00 | 0.00 | 0.00 | 55 | 1021.5 |
| 20260507153505 | 61 | 324 | 0.0 | 2.0 | 0.00 | 0.00 | 0.00 | 57 | 1021.5 |
| 20260507153004 | 61 | 313 | 1.0 | 2.0 | 0.00 | 0.00 | 0.00 | 57 | 1021.4 |
| 20260507152504 | 60 | 343 | 0.0 | 0.0 | 0.00 | 0.00 | 0.00 | 58 | 1021.5 |
| 20260507151504 | 59 | 343 | 0.0 | 0.0 | 0.00 | 0.00 | 0.00 | 61 | 1021.4 |
| 20260507151004 | 59 | 343 | 0.0 | 0.0 | 0.00 | 0.00 | 0.00 | 64 | 1021.5 |
| 20260507150505 | 58 | 343 | 0.0 | 0.0 | 0.00 | 0.00 | 0.00 | 64 | 1021.5 |
| 20260507150005 | 57 | 343 | 0.0 | 0.0 | 0.00 | 0.00 | 0.00 | 63 | 1021.5 |
| 20260507145504 | 57 | 343 | 0.0 | 0.0 | 0.00 | 0.00 | 0.00 | 66 | 1021.5 |
| 20260507145005 | 56 | 343 | 0.0 | 0.0 | 0.00 | 0.00 | 0.00 | 68 | 1021.5 |
| 20260507143505 | 54 | 343 | 0.0 | 0.0 | 0.00 | 0.00 | 0.00 | 75 | 1021.5 |
| 20260507143004 | 53 | 343 | 0.0 | 0.0 | 0.00 | 0.00 | 0.00 | 75 | 1021.6 |
| 20260507142505 | 53 | 343 | 0.0 | 0.0 | 0.00 | 0.00 | 0.00 | 79 | 1021.5 |
| 20260507142004 | 52 | 343 | 0.0 | 0.0 | 0.00 | 0.00 | 0.00 | 83 | 1021.5 |
| 20260507141505 | 50 | 343 | 0.0 | 0.0 | 0.00 | 0.00 | 0.00 | 84 | 1021.4 |
| 20260507140005 | 48 | 343 | 0.0 | 0.0 | 0.00 | 0.00 | 0.00 | 86 | 1021.4 |
| 20260507135504 | 47 | 343 | 0.0 | 0.0 | 0.00 | 0.00 | 0.00 | 87 | 1021.4 |
| 20260507135004 | 47 | 343 | 0.0 | 0.0 | 0.00 | 0.00 | 0.00 | 88 | 1021.4 |
| 20260507134504 | 46 | 343 | 0.0 | 0.0 | 0.00 | 0.00 | 0.00 | 89 | 1021.2 |
| 20260507134005 | 46 | 343 | 0.0 | 0.0 | 0.00 | 0.00 | 0.00 | 89 | 1021.2 |
| 20260507133504 | 45 | 343 | 0.0 | 0.0 | 0.00 | 0.00 | 0.00 | 89 | 1021.2 |
| 20260507133004 | 45 | 343 | 0.0 | 0.0 | 0.00 | 0.00 | 0.00 | 89 | 1021.1 |
| 20260507132504 | 45 | 343 | 0.0 | 0.0 | 0.00 | 0.00 | 0.00 | 89 | 1021.2 |
| 20260507132004 | 45 | 343 | 0.0 | 0.0 | 0.00 | 0.00 | 0.00 | 89 | 1021.2 |
| 20260507131505 | 45 | 343 | 0.0 | 0.0 | 0.00 | 0.00 | 0.00 | 89 | 1021.2 |
| 20260507131004 | 45 | 343 | 0.0 | 0.0 | 0.00 | 0.00 | 0.00 | 89 | 1021.2 |
| 20260507130505 | 45 | 343 | 0.0 | 0.0 | 0.00 | 0.00 | 0.00 | 89 | 1021.2 |
| 20260507130004 | 44 | 343 | 0.0 | 0.0 | 0.00 | 0.00 | 0.00 | 88 | 1021.2 |
| 20260507125505 | 45 | 343 | 0.0 | 0.0 | 0.00 | 0.00 | 0.00 | 88 | 1021.2 |
| 20260507125004 | 44 | 343 | 0.0 | 0.0 | 0.00 | 0.00 | 0.00 | 88 | 1021.1 |
| 20260507124504 | 45 | 343 | 0.0 | 0.0 | 0.00 | 0.00 | 0.00 | 87 | 1021.1 |
| 20260507124004 | 45 | 343 | 0.0 | 0.0 | 0.00 | 0.00 | 0.00 | 87 | 1021.1 |
| 20260507123505 | 45 | 343 | 0.0 | 0.0 | 0.00 | 0.00 | 0.00 | 86 | 1021.0 |
| 20260507122505 | 45 | 343 | 0.0 | 0.0 | 0.00 | 0.00 | 0.00 | 86 | 1021.0 |
| 20260507122005 | 46 | 343 | 0.0 | 0.0 | 0.00 | 0.00 | 0.00 | 86 | 1021.1 |
| 20260507121505 | 45 | 343 | 0.0 | 0.0 | 0.00 | 0.00 | 0.00 | 86 | 1021.1 |
| 20260507121005 | 46 | 343 | 0.0 | 0.0 | 0.00 | 0.00 | 0.00 | 87 | 1021.0 |
| 20260507120005 | 45 | 343 | 0.0 | 0.0 | 0.00 | 0.00 | 0.00 | 87 | 1021.0 |
| 20260507115504 | 46 | 343 | 0.0 | 0.0 | 0.00 | 0.00 | 0.00 | 86 | 1021.1 |
| 20260507115005 | 46 | 343 | 0.0 | 0.0 | 0.00 | 0.00 | 0.00 | 86 | 1021.0 |
| 20260507114505 | 46 | 343 | 0.0 | 0.0 | 0.00 | 0.00 | 0.00 | 86 | 1021.0 |
| 20260507114004 | 46 | 343 | 0.0 | 0.0 | 0.00 | 0.00 | 0.00 | 85 | 1021.0 |
| 20260507113505 | 46 | 343 | 0.0 | 0.0 | 0.00 | 0.00 | 0.00 | 84 | 1021.1 |
| 20260507113005 | 47 | 343 | 0.0 | 0.0 | 0.00 | 0.00 | 0.00 | 83 | 1021.1 |
| 20260507112505 | 47 | 343 | 0.0 | 0.0 | 0.00 | 0.00 | 0.00 | 82 | 1021.1 |
| 20260507112004 | 48 | 343 | 0.0 | 0.0 | 0.00 | 0.00 | 0.00 | 81 | 1021.1 |
| 20260507111506 | 48 | 343 | 0.0 | 0.0 | 0.00 | 0.00 | 0.00 | 80 | 1021.1 |
| 20260507110504 | 48 | 343 | 0.0 | 0.0 | 0.00 | 0.00 | 0.00 | 79 | 1021.1 |
| 20260507110005 | 48 | 343 | 0.0 | 0.0 | 0.00 | 0.00 | 0.00 | 79 | 1021.1 |
| 20260507105504 | 48 | 343 | 0.0 | 0.0 | 0.00 | 0.00 | 0.00 | 80 | 1021.1 |
| 20260507105005 | 48 | 343 | 0.0 | 0.0 | 0.00 | 0.00 | 0.00 | 80 | 1021.1 |
| 20260507104504 | 48 | 343 | 0.0 | 0.0 | 0.00 | 0.00 | 0.00 | 81 | 1021.1 |
| 20260507104005 | 48 | 343 | 0.0 | 0.0 | 0.00 | 0.00 | 0.00 | 81 | 1021.1 |
| 20260507103505 | 48 | 343 | 0.0 | 0.0 | 0.00 | 0.00 | 0.00 | 81 | 1021.2 |
| 20260507103005 | 47 | 343 | 0.0 | 0.0 | 0.00 | 0.00 | 0.00 | 82 | 1021.1 |
| 20260507102006 | 47 | 343 | 0.0 | 0.0 | 0.00 | 0.00 | 0.00 | 82 | 1021.2 |
| 20260507101504 | 48 | 343 | 0.0 | 0.0 | 0.00 | 0.00 | 0.00 | 81 | 1021.2 |
| 20260507101004 | 48 | 343 | 0.0 | 0.0 | 0.00 | 0.00 | 0.00 | 81 | 1021.2 |
| 20260507100505 | 48 | 343 | 0.0 | 0.0 | 0.00 | 0.00 | 0.00 | 80 | 1021.2 |
| 20260507100005 | 48 | 343 | 0.0 | 0.0 | 0.00 | 0.00 | 0.00 | 80 | 1021.2 |
| 20260507095005 | 49 | 343 | 0.0 | 0.0 | 0.00 | 0.00 | 0.00 | 78 | 1021.2 |
| 20260507094504 | 48 | 343 | 0.0 | 0.0 | 0.00 | 0.00 | 0.00 | 79 | 1021.2 |
| 20260507093504 | 49 | 343 | 0.0 | 0.0 | 0.00 | 0.00 | 0.00 | 79 | 1021.3 |
| 20260507093004 | 49 | 343 | 0.0 | 0.0 | 0.00 | 0.00 | 0.00 | 78 | 1021.2 |
| 20260507092504 | 49 | 343 | 0.0 | 0.0 | 0.00 | 0.00 | 0.00 | 78 | 1021.4 |
| 20260507092004 | 49 | 343 | 0.0 | 0.0 | 0.00 | 0.00 | 0.00 | 79 | 1021.4 |
| 20260507091505 | 49 | 343 | 0.0 | 0.0 | 0.00 | 0.00 | 0.00 | 78 | 1021.3 |
| 20260507091004 | 49 | 343 | 0.0 | 0.0 | 0.00 | 0.00 | 0.00 | 78 | 1021.4 |
| 20260507090505 | 49 | 343 | 0.0 | 0.0 | 0.00 | 0.00 | 0.00 | 76 | 1021.5 |
| 20260507090005 | 50 | 343 | 0.0 | 0.0 | 0.00 | 0.00 | 0.00 | 74 | 1021.5 |
| 20260507085504 | 50 | 343 | 0.0 | 0.0 | 0.00 | 0.00 | 0.00 | 74 | 1021.5 |
| 20260507085005 | 50 | 343 | 0.0 | 0.0 | 0.00 | 0.00 | 0.00 | 74 | 1021.5 |
| 20260507084505 | 50 | 343 | 0.0 | 0.0 | 0.00 | 0.00 | 0.00 | 70 | 1021.5 |
| 20260507084005 | 51 | 343 | 0.0 | 0.0 | 0.00 | 0.00 | 0.00 | 70 | 1021.5 |
| 20260507083505 | 51 | 343 | 0.0 | 0.0 | 0.00 | 0.00 | 0.00 | 71 | 1021.5 |
| 20260507083005 | 51 | 343 | 0.0 | 0.0 | 0.00 | 0.00 | 0.00 | 70 | 1021.5 |
| 20260507082504 | 51 | 343 | 0.0 | 0.0 | 0.00 | 0.00 | 0.00 | 69 | 1021.6 |
| 20260507082004 | 50 | 343 | 0.0 | 0.0 | 0.00 | 0.00 | 0.00 | 72 | 1021.6 |
| 20260507081504 | 51 | 343 | 0.0 | 0.0 | 0.00 | 0.00 | 0.00 | 71 | 1021.6 |
| 20260507081005 | 51 | 343 | 0.0 | 0.0 | 0.00 | 0.00 | 0.00 | 73 | 1021.6 |
| 20260507080504 | 51 | 343 | 0.0 | 0.0 | 0.00 | 0.00 | 0.00 | 71 | 1021.5 |
| 20260507080005 | 51 | 343 | 0.0 | 0.0 | 0.00 | 0.00 | 0.00 | 71 | 1021.4 |
| 20260507075505 | 51 | 343 | 0.0 | 0.0 | 0.00 | 0.00 | 0.00 | 73 | 1021.4 |
| 20260507075005 | 51 | 343 | 0.0 | 0.0 | 0.00 | 0.00 | 0.00 | 72 | 1021.4 |
| 20260507074504 | 52 | 343 | 0.0 | 0.0 | 0.00 | 0.00 | 0.00 | 70 | 1021.4 |
| 20260507074005 | 52 | 343 | 0.0 | 0.0 | 0.00 | 0.00 | 0.00 | 68 | 1021.4 |
| 20260507073505 | 52 | 343 | 0.0 | 0.0 | 0.00 | 0.00 | 0.00 | 67 | 1021.4 |
| 20260507073004 | 52 | 343 | 0.0 | 0.0 | 0.00 | 0.00 | 0.00 | 67 | 1021.4 |
| 20260507072505 | 52 | 343 | 0.0 | 0.0 | 0.00 | 0.00 | 0.00 | 69 | 1021.2 |
| 20260507072005 | 53 | 343 | 0.0 | 0.0 | 0.00 | 0.00 | 0.00 | 68 | 1021.2 |
| 20260507071504 | 53 | 343 | 0.0 | 0.0 | 0.00 | 0.00 | 0.00 | 66 | 1021.2 |
| 20260507071005 | 53 | 343 | 0.0 | 0.0 | 0.00 | 0.00 | 0.00 | 64 | 1021.1 |
| 20260507070505 | 53 | 343 | 0.0 | 0.0 | 0.00 | 0.00 | 0.00 | 65 | 1021.1 |
| 20260507070009 | 52 | 343 | 0.0 | 0.0 | 0.00 | 0.00 | 0.00 | 67 | 1021.1 |
| 20260507065504 | 52 | 343 | 0.0 | 0.0 | 0.00 | 0.00 | 0.00 | 70 | 1021.0 |
| 20260507065004 | 52 | 343 | 0.0 | 0.0 | 0.00 | 0.00 | 0.00 | 71 | 1020.9 |
| 20260507064504 | 52 | 343 | 0.0 | 0.0 | 0.00 | 0.00 | 0.00 | 71 | 1020.9 |
| 20260507063504 | 53 | 343 | 0.0 | 0.0 | 0.00 | 0.00 | 0.00 | 68 | 1020.8 |
| 20260507063004 | 53 | 343 | 0.0 | 0.0 | 0.00 | 0.00 | 0.00 | 67 | 1020.6 |
| 20260507062504 | 53 | 343 | 0.0 | 0.0 | 0.00 | 0.00 | 0.00 | 67 | 1020.6 |
| 20260507062004 | 54 | 343 | 0.0 | 0.0 | 0.00 | 0.00 | 0.00 | 65 | 1020.5 |
| 20260507061504 | 54 | 343 | 0.0 | 0.0 | 0.00 | 0.00 | 0.00 | 66 | 1020.4 |
| 20260507061004 | 54 | 343 | 0.0 | 0.0 | 0.00 | 0.00 | 0.00 | 64 | 1020.4 |
| 20260507060504 | 55 | 343 | 0.0 | 0.0 | 0.00 | 0.00 | 0.00 | 63 | 1020.4 |
| 20260507060004 | 55 | 343 | 0.0 | 0.0 | 0.00 | 0.00 | 0.00 | 59 | 1020.4 |
| 20260507055504 | 55 | 343 | 0.0 | 0.0 | 0.00 | 0.00 | 0.00 | 60 | 1020.5 |
| 20260507055005 | 56 | 343 | 0.0 | 0.0 | 0.00 | 0.00 | 0.00 | 59 | 1020.5 |
| 20260507054505 | 56 | 343 | 0.0 | 0.0 | 0.00 | 0.00 | 0.00 | 58 | 1020.6 |
| 20260507054005 | 56 | 343 | 0.0 | 0.0 | 0.00 | 0.00 | 0.00 | 57 | 1020.7 |
| 20260507052004 | 59 | 343 | 0.0 | 0.0 | 0.00 | 0.00 | 0.00 | 51 | 1021.0 |
| 20260507051504 | 59 | 343 | 0.0 | 0.0 | 0.00 | 0.00 | 0.00 | 48 | 1021.1 |
| 20260507051004 | 59 | 343 | 0.0 | 0.0 | 0.00 | 0.00 | 0.00 | 46 | 1021.1 |
| 20260507050504 | 59 | 343 | 0.0 | 0.0 | 0.00 | 0.00 | 0.00 | 47 | 1021.1 |
| 20260507050005 | 59 | 343 | 0.0 | 0.0 | 0.00 | 0.00 | 0.00 | 46 | 1021.0 |
| 20260507045504 | 59 | 343 | 0.0 | 0.0 | 0.00 | 0.00 | 0.00 | 46 | 1021.0 |
| 20260507044504 | 58 | 343 | 0.0 | 0.0 | 0.00 | 0.00 | 0.00 | 49 | 1020.9 |
| 20260507044005 | 58 | 343 | 0.0 | 0.0 | 0.00 | 0.00 | 0.00 | 51 | 1020.9 |
| 20260507043505 | 59 | 343 | 0.0 | 0.0 | 0.00 | 0.00 | 0.00 | 50 | 1020.9 |
| 20260507043004 | 59 | 343 | 0.0 | 0.0 | 0.00 | 0.00 | 0.00 | 49 | 1020.8 |
| 20260507042004 | 59 | 343 | 0.0 | 0.0 | 0.00 | 0.00 | 0.00 | 49 | 1020.8 |
| 20260507041504 | 59 | 343 | 0.0 | 0.0 | 0.00 | 0.00 | 0.00 | 48 | 1020.8 |
| 20260507041004 | 59 | 343 | 0.0 | 0.0 | 0.00 | 0.00 | 0.00 | 48 | 1020.6 |
| 20260507040505 | 59 | 343 | 0.0 | 0.0 | 0.00 | 0.00 | 0.00 | 50 | 1020.5 |
| 20260507040004 | 60 | 343 | 0.0 | 0.0 | 0.00 | 0.00 | 0.00 | 52 | 1020.4 |
| 20260507035504 | 60 | 343 | 0.0 | 0.0 | 0.00 | 0.00 | 0.00 | 53 | 1020.4 |
| 20260507035004 | 61 | 343 | 0.0 | 0.0 | 0.00 | 0.00 | 0.00 | 52 | 1020.4 |
| 20260507034505 | 61 | 343 | 0.0 | 0.0 | 0.00 | 0.00 | 0.00 | 49 | 1020.3 |
| 20260507034005 | 62 | 343 | 0.0 | 0.0 | 0.00 | 0.00 | 0.00 | 48 | 1020.3 |
| 20260507033504 | 62 | 343 | 0.0 | 0.0 | 0.00 | 0.00 | 0.00 | 48 | 1020.2 |
| 20260507033005 | 63 | 343 | 0.0 | 0.0 | 0.00 | 0.00 | 0.00 | 46 | 1020.2 |
| 20260507032505 | 63 | 343 | 0.0 | 0.0 | 0.00 | 0.00 | 0.00 | 46 | 1020.2 |
| 20260507032004 | 63 | 343 | 0.0 | 0.0 | 0.00 | 0.00 | 0.00 | 50 | 1020.0 |
| 20260507031506 | 63 | 343 | 0.0 | 0.0 | 0.00 | 0.00 | 0.00 | 54 | 1020.0 |
| 20260507031004 | 64 | 343 | 0.0 | 0.0 | 0.00 | 0.00 | 0.00 | 53 | 1020.0 |
| 20260507030504 | 64 | 343 | 0.0 | 0.0 | 0.00 | 0.00 | 0.00 | 51 | 1019.9 |
| 20260507030004 | 65 | 343 | 0.0 | 0.0 | 0.00 | 0.00 | 0.00 | 50 | 1019.9 |
| 20260507025505 | 65 | 343 | 0.0 | 0.0 | 0.00 | 0.00 | 0.00 | 49 | 1019.8 |
| 20260507025004 | 66 | 343 | 0.0 | 0.0 | 0.00 | 0.00 | 0.00 | 47 | 1019.7 |
| 20260507024504 | 66 | 343 | 0.0 | 0.0 | 0.00 | 0.00 | 0.00 | 46 | 1019.8 |
| 20260507024005 | 67 | 343 | 0.0 | 0.0 | 0.00 | 0.00 | 0.00 | 44 | 1019.7 |
| 20260507022504 | 71 | 343 | 0.0 | 0.0 | 0.00 | 0.00 | 0.00 | 37 | 1019.4 |